This is the latest recevied weather packets stored in our database for station/object K0APR. If no packets are shown the sender has not sent any weather packets the latest 10 day(s).
| Time | Temp. | Humidity | Pressure | Rain* | Wind** | Luminosity | Snow |
|---|---|---|---|---|---|---|---|
| 1788481755 | 31.11° C | 62% | 1007.7 hPa | 0 mm | - | 14 W/m² | - |
| 1788481452 | 31.11° C | 61% | 1007.7 hPa | 0 mm | - | 17 W/m² | - |
| 1788481150 | 31.11° C | 61% | 1007.4 hPa | 0 mm | - | 19 W/m² | - |
| 1788480846 | 31.67° C | 60% | 1007.4 hPa | 0 mm | - | 21 W/m² | - |
| 1788480546 | 31.67° C | 59% | 1007.7 hPa | 0 mm | - | 23 W/m² | - |
| 1788480245 | 32.22° C | 57% | 1007.4 hPa | 0 mm | - | 25 W/m² | - |
| 1788479941 | 32.22° C | 56% | 1007.4 hPa | 0 mm | - | 27 W/m² | - |
| 1788479637 | 32.78° C | 54% | 1007.4 hPa | 0 mm | - | 42 W/m² | - |
| 1788479336 | 32.78° C | 54% | 1007.4 hPa | 0 mm | - | 57 W/m² | - |
| 1788479032 | 33.33° C | 53% | 1007 hPa | 0 mm | - | 70 W/m² | - |
| 1788478728 | 33.33° C | 54% | 1007.4 hPa | 0 mm | - | 76 W/m² | - |
| 1788478424 | 33.33° C | 54% | 1007.4 hPa | 0 mm | - | 91 W/m² | - |
| 1788478123 | 33.33° C | 54% | 1007.4 hPa | 0 mm | - | 97 W/m² | - |
| 1788477819 | 33.33° C | 54% | 1007.4 hPa | 0 mm | - | 111 W/m² | - |
| 1788477518 | 33.33° C | 54% | 1007.4 hPa | 0 mm | - | 124 W/m² | - |
| 1788477213 | 33.33° C | 54% | 1007 hPa | 0 mm | - | 141 W/m² | - |
| 1788476909 | 33.89° C | 53% | 1007 hPa | 0 mm | - | 163 W/m² | - |
| 1788476604 | 33.89° C | 52% | 1007 hPa | 0 mm | - | 174 W/m² | - |
| 1788476300 | 33.89° C | 53% | 1006.7 hPa | 0 mm | - | 174 W/m² | - |
| 1788475996 | 33.89° C | 54% | 1006.7 hPa | 0 mm | - | 192 W/m² | - |
| 1788475692 | 33.89° C | 53% | 1006.7 hPa | 0 mm | - | 203 W/m² | - |
| 1788475388 | 33.89° C | 53% | 1006.7 hPa | 0 mm | - | 217 W/m² | - |
| 1788475084 | 34.44° C | 53% | 1006.7 hPa | 0 mm | - | 72 W/m² | - |
| 1788474782 | 34.44° C | 52% | 1006.7 hPa | 0 mm | - | 46 W/m² | - |
| 1788474477 | 34.44° C | 53% | 1006.7 hPa | 0 mm | - | 47 W/m² | - |
* Rain latest hour (hover to see other rain measurements)
** Current wind speed in m/s (hover to see current wind gust speed)